Miscellaneous Local Product
Issued by NWS Hastings, NE

Home | Current Version | Previous Version | Text Only | Print | Product List | Glossary On
Versions: 1 2 3 4 5 6 7 8 9 10 11 12 13 14 15 16 17 18 19 20 21 22 23 24 25 26 27 28 29 30 31 32 33 34 35 36 37 38 39 40 41 42 43 44 45 46 47 48 49 50
000
AXUS43 KGID 230702
MISGRI

GID CWA HOURLY WEATHER ROUNDUP
NATIONAL WEATHER SERVICE HASTINGS NE
200 AM CDT WED APR 23 2014

NOTE: "FAIR" INDICATES FEW OR NO CLOUDS BELOW 12,000 FEET WITH NO
SIGNIFICANT WEATHER AND/OR OBSTRUCTIONS TO VISIBILITY.

...SOUTH CENTRAL NEBRASKA...

CITY           SKY/WX    TMP DP  RH WIND       PRES   REMARKS
GRAND ISLAND   PTCLDY    56  33  42 SE21G33   29.83F
HASTINGS       MOCLDY    57  31  37 SE18      29.82F
KEARNEY        MOCLDY    55  32  41 SE20G25   29.80F
ORD            PTCLDY    56  31  38 SE13      29.80F
YORK           CLOUDY    55  32  41 SE18      29.88S
AURORA         CLEAR     56  33  41 SE18      29.86S
LEXINGTON      MOCLDY    58  35  42 SE18      29.76F
HOLDREGE       CLOUDY    58  31  35 SE20G29   29.78F
HEBRON         MOCLDY    58  32  37 SE16      29.88F

...NEBRASKA PANHANDLE...

CITY           SKY/WX    TMP DP  RH WIND       PRES   REMARKS
CHADRON        PTCLDY    61  42  49 SE25G35   29.49F
ALLIANCE       CLOUDY    59  43  55 SE20      29.58F
SCOTTSBLUFF    CLOUDY    57  44  62 E13       29.55F
SIDNEY         MOCLDY    57  41  55 S16       29.61F

...WESTERN AND NORTH CENTRAL NEBRASKA...

CITY           SKY/WX    TMP DP  RH WIND       PRES   REMARKS
VALENTINE      CLOUDY    56  33  42 E12       29.71F
AINSWORTH      MOCLDY    58  32  37 S23G32    29.70F
ONEILL         CLOUDY    56  29  35 SE16G24   29.81S
BROKEN BOW     MOCLDY    53  33  46 SE16      29.76F
IMPERIAL       CLEAR     61  44  53 S24G32    29.65F
NORTH PLATTE   CLOUDY    60  39  45 SE17G29   29.69F
MCCOOK         PTCLDY    61  36  39 S28G44    29.69F

...EASTERN NEBRASKA...

CITY           SKY/WX    TMP DP  RH WIND       PRES   REMARKS
NORFOLK        MOCLDY    55  33  43 SE16G24   29.87F
SO SIOUX CITY  PTCLDY    55  34  45 SE12      29.95S
TEKAMAH        CLOUDY    54  33  45 SE12      29.96S
COLUMBUS       PTCLDY    57  32  38 SE15G22   29.90F
ALBION         MOCLDY    55  31  40 SE15      29.86S
OMAHA EPPLEY   MOCLDY    57  34  41 SE10      29.97R
OFFUTT AFB     CLOUDY    55  37  49 SE10      29.98R
MILLARD        MOCLDY    56  35  44 SE7       29.96S
LINCOLN        MOCLDY    60  33  36 SE18      29.94F
NEBRASKA CITY  PTCLDY    56  34  42 SE8       29.98R
BEATRICE       MOCLDY    59  32  36 SE14G20   29.93F
FALLS CITY     CLEAR     51  36  56 SE12      29.95F

...NORTHERN KANSAS...

CITY           SKY/WX    TMP DP  RH WIND       PRES   REMARKS
GOODLAND       MOCLDY    59  46  62 S28G35    29.70F
HILL CITY      CLOUDY    60  37  42 S20G28    29.77F
PHILLIPSBURG   PTCLDY    63  32  31 SE16      29.81F
SMITH CENTER   PTCLDY    59  30  33 SE15      29.84R
BELOIT         MOCLDY    61  32  33 SE20G25   29.86S
HAYS           CLOUDY    61  34  36 SE20G26   29.82F
RUSSELL        CLOUDY    61  31  32 SE23      29.82F
CONCORDIA      CLOUDY    60  33  36 SE17      29.89F
SALINA         CLOUDY    60  33  36 SE12      29.90F
TOPEKA         MOCLDY    54  37  52 SE7       29.96F



USA.gov is the U.S. government's official web portal to all federal, state and local government web resources and services.